User: anonymous   Login
Location: Unspecified
(0.0000°N, 0.0000°E)
Time: 17:45:17
(UTC+00:00)
Language:

COSMOS 2498 - Orbit

View from above orbital plane
View from above orbital plane
View from above satellite
View from above satellite

Ground track
Ground track

The orbit data is extracted from the following two-line orbital elements,

1 39763U 14028C   18049.74668575 +.00000041 +00000-0 +22575-3 0  9992
2 39763 082.4450 213.2356 0020440 213.3417 146.6377 12.42868680169887
Epoch (UTC): 18 February 2018 17:55:13
Eccentricity: 0.0020440
inclination: 82.4450°
perigee height: 1478 km
apogee height: 1510 km
right ascension of ascending node: 213.2356°
argument of perigee: 213.3417°
revolutions per day: 12.42868680
mean anomaly at epoch: 146.6377°
orbit number at epoch: 16988

The dashed part of the orbit path shows where the satellite is in the earth's shadow,  

DLR